Weather in Drogichin

Belarus     52°11′07″N   25°09′36″E
temp.,
°C
wind,
m/s
gust,
m/s
humid.,
%
clouds,
%
prec.,
mm/h
press.,
hPa
HPBL,
m
23 april, fri
fri2300:00+3wsw49782 0.0 1015181
03:00+2wsw512830 0.0 1015358
06:000wsw410883 0.0 1016273
09:00+4w610675 0.0 1017828
12:00+5wnw6863100 0.1 10171219
15:00+8w7105495 0.9 10171992
18:00+7w7116881 0.9 10171420
21:00+3w36729 1.2 1018102
24 april, sat
sat2400:00+1wnw3107616 0.0 1019296
03:00−1wnw511784 0.0 1019366
06:00−2wnw511825 0.0 1020349
09:00+3wnw58645 0.0 1020801
12:00+7wnw6841100 0.1 10202749
15:00+8w7938100 0.1 10192680
18:00+8w694753 0.0 10182175
21:00+2nw227498 0.3 101912
25 april, sun
sun2500:00+2n2489100 0.1 1018193
03:00+1wnw489659 1.6 1018363
06:00−3wnw49925 0.1 1019232
09:00+1wnw587812 0.1 1020708
12:00+4wnw6762100 0.3 10191341
15:00+7wnw6849100 0.9 10182104
18:00+6wnw685778 0.3 10171476
21:00+2w238067 0.8 101859
26 april, mon
mon2600:000wnw358861 0.3 101885
03:00−1wnw369399 0.3 1017123
06:00−2wnw37936 0.0 1017174
09:00+1wnw5773100 0.0 1018775
12:00+4wnw576094 0.2 10171522
15:00+6w7853100 1.1 10161854
18:00+6w6856100 0.6 10151492
21:00+4wsw5968100 0.9 1015344
27 april, tue
tue2700:00+2w4879100 0.0 1014316
03:00+2w51179100 0.0 1013540
06:000w5118661 0.0 1013439
09:00+1w51088100 0.1 1014527
12:00+4wnw5789100 0.0 1015608
15:00+7w5665100 0.3 10141327
18:00+7w456795 0.2 10141050
21:00+4wsw367996 0.2 1015118